RH
87 87 87 86 85 82 83 83 82 84 85 86 86 87 88 88 86 32 6 19 32 79 67 39 37 37 37 39 40 38 26 22 23 24 28 23 24 25 21 26 33 29 24 29 34
88 88 87 87 87 85 84 83 84 84 84 86 87 87 88 90 25 7 26 53 77 77 34 37 37 38 33 37 31 26 21 24 25 26 24 24 24 24 24 28 35 34 30 34 36
91 89 88 88 87 86 85 84 85 85 85 86 87 87 88 69 18 9 55 70 80 65 32 32 33 35 36 34 38 28 25 24 24 22 22 24 25 22 25 24 30 38 39 38 39
92 88 88 87 87 86 84 84 85 86 86 86 87 87 88 34 10 17 66 81 79 26 28 28 31 32 30 31 34 34 27 24 23 21 22 25 22 24 26 22 23 31 34 36 37
92 90 88 85 87 85 85 85 85 86 87 87 87 87 48 18 13 28 72 75 33 22 28 27 31 29 31 28 29 29 26 24 24 22 22 23 24 26 27 21 24 30 34 34 31
91 91 86 87 89 88 85 84 85 86 87 87 86 89 25 10 18 20 19 25 14 11 16 23 24 23 29 29 28 26 26 24 23 23 24 24 24 25 30 25 28 32 33 30 30
92 91 90 90 89 86 86 85 85 86 86 86 83 43 14 15 18 16 12 9 8 6 10 20 16 15 26 29 28 26 26 24 24 23 26 22 28 28 29 27 29 28 29 29 30
92 92 91 91 91 89 86 88 88 87 86 83 79 28 11 15 15 13 9 8 9 8 13 18 13 14 25 26 31 26 26 29 28 25 24 23 32 30 29 27 28 26 27 30 30
92 92 92 92 91 89 90 91 87 83 80 75 37 19 13 27 14 10 7 5 8 7 14 14 10 12 19 27 35 27 34 31 32 25 26 26 31 29 27 27 27 26 27 28 30
93 92 93 91 91 91 93 84 83 77 54 36 24 18 13 10 9 11 10 5 7 8 13 10 8 11 14 25 42 35 38 27 29 27 26 28 32 31 27 26 27 24 24 26 26
92 92 92 91 90 92 61 29 22 18 20 11 8 12 10 8 7 11 10 11 9 15 13 10 13 16 16 16 21 24 30 38 26 25 27 26 27 32 28 26 26 24 25 24 23
93 90 92 91 92 92 41 13 17 17 13 12 12 12 10 8 8 10 11 9 12 17 12 12 13 12 12 14 15 17 24 27 19 28 28 26 28 24 27 30 25 24 24 23 21
93 94 93 93 92 59 17 16 16 17 12 10 9 9 8 8 7 10 10 9 10 13 12 12 10 10 12 13 16 17 18 16 18 25 25 27 24 26 28 26 26 24 23 23 21
92 93 94 94 56 21 15 18 16 16 12 11 9 8 9 8 9 8 8 8 9 10 10 10 8 9 11 14 13 16 15 15 15 21 21 22 21 26 24 29 28 26 24 23 24
92 92 95 97 36 16 18 16 14 12 17 10 9 8 7 8 9 10 8 8 8 9 10 8 8 9 9 8 9 14 10 13 16 17 17 17 19 20 25 28 26 27 26 23 23
92 93 94 58 37 20 18 15 12 15 17 12 8 8 8 8 7 10 11 8 8 9 8 6 6 6 5 6 6 8 12 16 18 17 22 19 18 16 21 28 28 26 27 25 23
92 95 78 42 19 21 19 13 13 13 12 11 8 7 7 8 7 10 12 12 10 13 12 8 8 6 6 6 7 9 11 22 26 23 24 16 19 18 23 29 33 34 33 30 24
94 94 73 38 28 26 16 14 19 11 10 9 6 6 8 7 8 8 10 11 9 9 8 10 9 7 6 6 7 8 8 13 27 20 16 22 25 17 23 35 38 42 44 31 26
93 27 28 22 25 26 15 16 12 11 10 11 9 8 8 7 8 8 10 9 9 9 11 10 10 6 6 5 5 8 10 6 8 10 14 15 18 24 30 32 34 35 55 57 52
46 28 22 25 24 18 16 22 13 13 13 12 13 10 10 8 9 9 9 7 8 8 7 9 11 6 6 7 7 8 7 9 9 19 19 12 15 14 29 25 37 40 45 52 50
40 26 24 18 19 17 18 15 13 12 14 14 13 13 10 9 8 8 9 8 6 7 7 6 8 9 8 9 8 9 9 9 6 8 12 13 11 13 15 32 37 41 47 50 47
34 25 26 19 19 16 18 15 34 10 13 16 16 14 14 9 10 9 9 8 6 6 9 7 6 10 8 7 7 8 8 7 10 16 11 11 11 29 34 38 42 43 58 53 48
37 30 26 23 24 19 18 18 15 14 14 15 15 14 14 14 15 10 8 6 6 7 8 8 8 10 12 7 9 8 8 8 8 8 15 14 11 29 42 52 55 47 55 57 55
49 29 28 28 25 27 25 23 22 18 20 20 19 17 16 17 14 14 10 8 6 6 40 20 7 11 9 11 8 11 8 8 7 10 11 10 11 35 38 43 62 57 63 62 60
39 31 44 27 30 32 31 29 27 26 22 22 24 21 18 21 18 17 11 10 12 33 15 9 14 10 8 6 6 8 7 8 10 9 10 9 9 10 26 39 46 58 67 60 58
46 40 38 38 43 43 47 37 35 27 27 28 30 22 23 24 19 20 15 12 13 17 15 10 17 14 12 8 7 7 6 7 9 8 10 10 11 9 23 35 51 70 71 56 55
49 50 52 46 35 39 33 34 35 32 29 28 29 29 29 25 24 21 18 15 14 17 19 15 15 18 19 11 10 12 8 8 10 10 10 11 14 26 38 45 56 69 65 64 54
Wind_Speed
13 13 12 12 12 12 13 14 13 12 12 13 11 12 12 11 13 6 4 6 6 12 9 9 7 6 2 3 3 4 4 9 10 9 9 11 10 8 11 11 8 4 14 18 16
12 12 12 12 12 12 13 13 13 13 11 11 11 10 10 9 7 6 8 8 14 11 13 10 8 4 2 3 3 5 1 7 4 5 5 8 7 10 10 11 11 14 19 18 16
12 12 13 13 13 12 13 13 13 13 12 11 10 9 8 10 7 6 7 10 12 10 7 2 4 6 1 4 0 2 6 4 5 2 7 10 10 5 7 10 14 19 19 17 15
14 14 14 14 14 13 13 14 13 13 11 11 9 9 8 6 3 6 7 13 10 5 9 5 5 6 1 3 2 4 2 3 7 8 11 9 11 13 6 12 16 18 18 16 14
14 14 15 15 14 14 14 14 14 12 11 11 9 8 7 7 6 7 11 12 12 4 8 3 4 5 2 4 5 5 4 1 5 6 9 11 9 9 11 14 17 17 16 15 12
14 15 17 16 14 14 15 14 13 11 10 10 8 8 7 6 2 9 10 14 8 8 6 4 4 6 3 5 5 5 3 3 4 10 9 8 10 8 10 14 16 16 15 14 11
16 16 16 15 15 16 15 14 12 11 9 9 7 6 7 8 2 8 10 7 5 6 5 2 4 8 1 8 3 2 5 7 9 9 6 5 9 5 15 14 16 15 13 12 12
15 17 18 18 16 16 16 14 13 10 7 6 6 6 5 2 6 7 7 7 5 4 4 0 5 3 5 4 4 8 5 2 8 7 5 9 7 12 15 15 15 14 13 12 12
15 15 15 17 18 16 14 14 10 5 4 5 7 7 9 3 7 7 7 7 9 6 3 4 6 1 6 11 6 7 8 8 5 7 6 11 6 10 13 13 13 14 14 13 13
14 15 17 17 16 16 14 6 4 8 5 6 4 7 8 6 8 7 6 9 10 11 6 7 7 8 7 5 4 6 4 7 5 8 8 8 4 10 15 14 13 14 14 14 13
18 17 16 17 17 15 7 5 7 7 8 6 6 2 9 8 8 9 11 10 11 13 11 7 9 11 7 6 4 9 10 1 2 4 5 5 6 9 13 15 15 14 15 14 14
19 21 19 19 18 11 7 3 6 6 3 2 3 3 3 2 8 12 9 11 13 15 8 8 13 5 1 5 4 5 6 7 3 2 7 2 8 10 13 15 14 15 15 16 16
21 20 20 19 18 5 3 5 4 3 6 7 4 5 6 10 7 15 15 5 16 18 15 14 3 6 7 8 9 10 10 3 5 5 8 6 13 9 9 13 15 14 14 15 17
22 20 19 21 5 1 2 1 5 6 7 10 10 7 8 5 7 12 12 8 8 14 9 13 8 6 10 13 11 12 9 8 5 6 5 2 4 8 5 13 14 16 16 17 17
21 21 16 9 6 5 6 6 4 6 6 11 9 7 8 7 12 12 8 8 9 9 10 7 11 15 14 13 10 12 4 9 7 9 5 9 7 5 5 6 11 14 14 18 18
23 22 15 5 4 3 5 2 6 8 3 9 9 11 14 9 8 13 13 7 1 6 10 12 1 6 13 13 12 6 8 6 7 11 11 10 8 3 4 6 5 1 6 16 18
24 20 6 4 3 2 5 6 7 7 4 8 10 10 15 10 10 12 16 16 11 11 13 13 14 8 6 13 10 14 14 11 11 11 11 1 6 12 7 3 3 5 4 6 13
26 14 4 5 4 6 6 7 8 2 8 3 5 9 13 11 10 12 14 15 17 11 6 11 14 18 15 17 11 16 18 13 13 11 11 13 7 4 7 4 2 5 7 8 10
27 2 4 2 4 5 8 9 3 2 2 7 8 11 12 11 6 13 15 15 15 16 10 9 10 3 6 14 16 11 15 17 20 20 9 7 11 9 10 8 1 4 6 7 14
8 5 2 5 3 7 8 10 3 3 3 7 13 12 14 15 13 12 13 11 15 16 16 4 6 9 11 8 10 15 9 12 12 17 18 13 13 8 10 10 4 3 6 8 3
7 6 6 1 5 7 10 11 5 7 6 7 9 7 11 10 16 14 8 8 15 17 15 13 9 9 7 13 15 12 14 12 14 13 14 14 12 1 5 5 1 3 6 3 3
6 5 4 4 7 4 10 6 1 7 9 7 6 9 9 12 15 16 15 9 9 12 17 16 9 11 14 7 3 11 16 20 12 17 9 13 9 6 8 6 3 4 5 5 5
7 5 4 5 7 10 6 9 8 8 10 7 10 9 7 10 9 15 13 9 10 15 9 11 10 11 13 11 8 11 14 15 15 15 16 12 10 8 9 6 3 2 3 5 5
6 5 5 5 4 8 11 13 13 8 11 8 8 5 10 12 11 6 13 9 11 13 7 7 15 12 12 10 8 20 16 15 17 16 16 17 17 11 11 9 8 6 6 6 6
4 1 5 3 4 8 9 9 10 15 11 8 10 13 14 16 15 15 14 10 9 7 6 11 17 17 18 18 13 12 15 16 18 18 19 15 16 14 13 11 11 10 9 10 9
6 4 2 9 8 10 7 9 13 17 9 11 13 6 8 13 13 12 15 16 14 13 12 11 13 15 21 18 16 20 17 15 16 16 9 12 12 4 4 11 11 13 11 11 9
4 3 5 5 10 9 12 11 10 10 11 9 13 9 12 8 12 10 9 14 10 9 13 14 11 12 18 19 20 23 20 17 15 12 14 13 9 8 12 14 15 15 13 10 7
Wind_Direction
354 355 352 349 340 334 330 329 329 332 329 325 329 324 327 329 294 222 224 59 145 168 210 154 193 171 149 279 276 259 222 88 86 48 109 123 115 81 104 132 61 119 127 122 143
352 351 350 345 341 337 329 327 327 327 326 323 325 324 323 324 260 224 85 129 141 172 175 177 158 177 221 242 233 266 87 61 45 66 116 129 107 110 125 118 108 109 112 130 147
341 349 350 346 342 336 330 328 324 324 324 320 322 316 316 302 240 74 108 138 152 202 197 219 194 236 227 223 14 51 58 102 68 75 133 134 120 115 112 104 137 138 140 148 154
344 346 345 342 340 332 329 326 323 322 321 316 318 312 311 244 154 73 127 136 162 213 197 203 225 242 222 182 138 140 112 51 58 132 136 145 125 102 53 89 133 138 146 152 160
341 340 341 340 336 333 330 325 321 319 315 310 313 309 264 207 74 116 141 149 169 181 198 203 243 294 350 163 181 79 57 112 107 132 144 136 135 95 98 114 131 139 152 156 159
339 336 339 338 334 332 327 322 316 310 305 303 302 294 252 174 68 152 147 164 174 199 191 228 351 338 89 110 308 113 39 113 144 131 149 164 136 150 121 132 139 152 161 162 159
335 336 336 333 330 329 324 319 308 301 295 291 283 269 248 82 129 158 176 179 177 220 195 166 332 287 265 131 38 145 128 97 124 139 156 170 172 115 144 150 150 161 164 165 163
337 334 333 334 328 328 325 313 297 281 272 267 267 251 79 90 137 170 182 170 192 212 285 120 301 266 297 120 204 137 175 221 130 188 164 216 124 130 158 160 160 160 160 170 166
337 332 331 329 329 330 323 313 289 226 204 209 233 260 121 141 196 167 198 187 172 189 196 280 257 257 178 191 194 192 162 267 143 231 158 225 67 143 174 168 164 165 165 171 169
336 336 331 335 333 329 320 293 106 166 195 222 257 235 163 156 137 159 164 175 169 165 179 215 220 209 190 146 242 191 87 230 236 169 209 194 148 162 179 181 177 170 172 176 179
338 339 331 335 337 326 283 188 200 175 210 340 109 3 127 115 155 178 160 179 176 189 195 199 228 218 192 178 260 261 219 56 343 103 235 226 167 185 183 199 183 182 181 183 187
334 337 335 336 330 318 264 290 40 355 209 189 235 241 172 197 153 162 187 192 188 195 201 193 230 111 156 192 214 195 195 184 223 184 262 235 246 202 184 209 206 193 186 187 187
332 330 334 329 324 263 332 56 342 256 254 148 191 193 171 199 184 169 197 199 203 205 209 231 93 140 212 196 224 220 265 118 339 164 231 274 251 206 208 204 205 222 200 199 193
331 330 331 325 288 36 181 30 302 209 241 140 186 153 166 211 165 154 206 197 205 217 205 239 160 214 222 237 234 249 227 247 234 240 244 243 299 182 193 205 214 210 215 211 205
329 327 326 319 328 223 55 325 170 225 242 143 145 116 159 216 121 184 174 199 207 191 213 193 212 222 231 235 225 260 212 233 237 246 286 219 262 142 168 220 198 214 223 221 214
327 326 321 195 228 2 312 251 232 227 203 161 150 182 180 190 168 144 183 232 20 196 228 262 130 248 240 224 232 262 217 208 239 256 246 243 244 209 87 95 127 180 251 233 218
326 325 274 298 41 323 292 221 225 253 133 163 183 187 198 177 165 183 190 194 198 202 209 208 214 203 227 204 200 214 216 223 218 214 246 45 233 265 139 133 342 334 320 266 219
325 319 163 293 289 291 220 222 244 44 184 112 187 188 200 177 195 194 195 207 218 234 261 211 196 208 199 231 201 214 234 238 235 242 252 137 241 219 99 123 120 41 359 342 212
312 227 229 45 269 245 229 219 272 211 146 190 172 199 197 197 247 200 217 220 203 213 233 201 233 136 219 215 232 199 232 250 266 269 270 238 195 172 167 166 75 54 71 48 352
316 298 61 9 217 244 232 246 240 220 206 217 222 210 209 195 201 201 192 216 218 203 232 184 249 192 159 218 229 264 257 210 231 252 248 236 247 277 178 198 145 92 58 51 40
268 284 78 303 269 227 238 235 242 200 216 219 231 232 245 211 210 203 209 191 212 189 213 219 245 144 174 206 216 194 228 236 273 233 249 249 247 166 165 133 160 64 62 60 102
303 272 83 257 229 240 245 224 320 214 205 233 260 256 243 211 222 228 224 238 173 180 199 211 232 237 228 134 307 291 231 225 230 227 243 278 274 97 123 144 171 87 49 37 64
317 289 128 253 244 220 213 251 252 223 217 216 235 232 220 227 234 229 224 212 181 192 207 174 219 232 230 204 203 240 228 251 255 258 257 236 247 137 148 148 145 120 87 96 101
277 281 167 215 274 275 279 257 242 213 266 241 261 247 226 229 222 233 227 180 203 225 66 229 242 233 256 237 220 203 229 225 238 236 240 240 256 172 194 184 168 150 142 122 99
231 331 5 266 192 276 266 289 270 244 223 241 230 242 239 239 233 223 237 193 199 155 217 232 241 251 247 261 257 247 237 220 232 247 258 269 266 248 184 186 179 149 159 153 135
298 293 213 286 264 263 227 253 253 255 240 244 239 210 232 245 253 276 235 226 227 170 201 226 243 250 256 250 244 252 244 239 225 243 249 256 261 261 170 168 162 170 175 162 152
237 240 269 270 257 253 253 251 267 269 261 264 287 279 249 276 349 318 292 285 287 266 217 227 234 227 250 251 244 240 239 234 225 226 234 241 241 137 168 179 180 171 173 175 181